Regional Weather Roundup
Issued by NWS

Home | Current Version | Previous Version | Graphics & Text | Print | Product List | Glossary On
Versions: 1 2 3 4 5 6 7 8 9 10 11 12 13 14 15 16 17 18 19 20 21 22 23 24 25 26 27 28 29 30 31 32 33 34 35 36 37 38 39 40 41 42 43 44 45 46 47 48 49 50
000
ASUS43 KMKX 021321
RWRWI

WISCONSIN REGIONAL WEATHER ROUNDUP
NATIONAL WEATHER SERVICE MILWAUKEE/SULLIVAN WI
800 AM CDT TUE SEP 02 2014

NOTE: "FAIR" INDICATES FEW OR NO CLOUDS BELOW 12,000 FEET WITH NO
SIGNIFICANT WEATHER AND/OR OBSTRUCTIONS TO VISIBILITY.

WIZ001-002-006>008-014>016-023>028-021400-
NORTHWEST WISCONSIN

CITY           SKY/WX    TMP DP  RH WIND       PRES   REMARKS
SUPERIOR ARPT  MOSUNNY   54  52  95 SW7       29.83R
ASHLAND        MOSUNNY   58  54  86 SW6       29.83R
HAYWARD        PTSUNNY   54  52  93 CALM      29.86R
SIREN          MOSUNNY   56  55  95 CALM      29.86S
RICE LAKE      PTSUNNY   58  57  96 CALM      29.88S
LADYSMITH      CLOUDY    57  56  96 CALM      29.88R
EAU CLAIRE     CLOUDY    61  60  97 SW6       29.86S
MENOMONIE      CLOUDY    62  59  91 SW6       29.87S
NEW RICHMOND   PTSUNNY   60  60  97 SW3       29.87S
OSCEOLA        PTSUNNY   58  58 100 CALM      29.90R
$$

WIZ003>005-009-010-017-018-021400-
NORTH CENTRAL WISCONSIN

CITY           SKY/WX    TMP DP  RH WIND       PRES   REMARKS
WOODRUFF       CLOUDY    57  55  95 CALM      29.85R
RHINELANDER    CLOUDY    55  53  93 W7        29.86R
EAGLE RIVER    CLOUDY    54  54 100 CALM      29.84S
LAND O LAKES   CLOUDY    52  52 100 CALM      29.84S
PHILLIPS       MOSUNNY   56  55  94 CALM      29.85S
TOMAHAWK       CLOUDY    53  53  97 CALM      29.86S
MEDFORD        CLOUDY    57  56  97 CALM      29.87R
MERRILL        CLOUDY    54  54 100 SW7       29.87R
$$

WIZ029-030-035-036-043>047-021400-
CENTRAL WISCONSIN

CITY           SKY/WX    TMP DP  RH WIND       PRES   REMARKS
WAUSAU         PTSUNNY   60  57  89 CALM      29.86R
MOSINEE        MOSUNNY   57  57 100 CALM      29.87S
MARSHFIELD     PTSUNNY   61  58  90 W7        29.87R
STEVENS POINT  MOSUNNY   57  56  96 S5        29.87R
WAUPACA        MOSUNNY   61  60  95 SW3       29.87R
WAUTOMA        PTSUNNY   60  58  93 CALM      29.89R
WISC RAPIDS    PTSUNNY   59  58  96 SW7       29.88R
CAMP DOUGLAS   CLOUDY    61  61 100 SW7       29.89R
$$

WIZ011>013-019>022-031-037>040-048>050-021400-
NORTHEAST WISCONSIN

CITY           SKY/WX    TMP DP  RH WIND       PRES   REMARKS
ANTIGO         LGT RAIN  57  56  97 W10G16    29.88R
STURGEON BAY   SUNNY     63  57  82 SW8       29.86R
GREEN BAY      SUNNY     61  59  93 S3        29.86R
MANITOWOC      SUNNY     65  62  90 SW6       29.87R
APPLETON       MOSUNNY   63  61  94 SW6       29.86S
CLINTONVILLE   SUNNY     57  55  94 SW5       29.85S
OSHKOSH        SUNNY     65  60  84 S5        29.87R
$$

WIZ032>034-041-042-053>061-021400-
SOUTHWEST WISCONSIN

CITY           SKY/WX    TMP DP  RH WIND       PRES   REMARKS
LA CROSSE      CLOUDY    62  57  83 S7        29.90R
SPARTA         CLOUDY    57  56  97 W5        29.91R
VIROQUA        CLOUDY    60  60 100 W10G21    29.93R
BOSCOBEL       LGT RAIN  61  59  93 S6        29.94R
PRAIRIE DU CHI LGT RAIN  62  59  90 CALM      29.93S
PLATTEVILLE    CLOUDY    60  59  97 CALM      29.93S
$$

WIZ056-057-062-063-064-067-068-021400-
SOUTH CENTRAL WISCONSIN

CITY           SKY/WX    TMP DP  RH WIND       PRES   REMARKS
BARABOO/DELLS  CLOUDY    61  58  90 SW6       29.90R
LONE ROCK      CLOUDY    63  59  87 W7        29.93R FOG
WATERTOWN      SUNNY     62  62 100 CALM      29.89S
MADISON        PTSUNNY   64  60  87 CALM      29.90R
MIDDLETON      FAIR      61  61 100 CALM      29.91R
MONROE         PTSUNNY   64  59  82 W5        29.91S
JANESVILLE     PTSUNNY   63  61  94 CALM      29.89R
$$

WIZ051-052-058>065-066-070>072-021400-
SOUTHEAST WISCONSIN

CITY           SKY/WX    TMP DP  RH WIND       PRES   REMARKS
MILWAUKEE      MOSUNNY   68  61  78 W3        29.88R
WAUKESHA       MOSUNNY   61  61 100 CALM      29.90S
MILWAUKEE/TIMM SUNNY     64  61  88 CALM      29.88S
RACINE         SUNNY     67  63  87 W5        29.89S
BURLINGTON     SUNNY     61  61 100 CALM      29.89R
KENOSHA        SUNNY     65  65 100 W3        29.88S
FOND DU LAC    SUNNY     63  61  93 MISG      29.88R
SHEBOYGAN      SUNNY     63  60  90 CALM      29.88R
WEST BEND      SUNNY     61  59  94 CALM      29.89R
JUNEAU         SUNNY     60  60  98 S3        29.91R
$$

LSZ147-162-021400-
LAKE SUPERIOR

STATION/POSITION TIME  TEMP    WIND        PRES    WAVE
                       AIR SEA DIR/SP/G            HT/PER
                 (UTC) (F)     (DEG/KT/KT) (MB)    (FT/S)
W MID LAKE BUOY  1250   60 57  250/ 10/ 12 1008.1R   1/ 3
DEVILS ISLAND    1300   60     240/ 16/ 19 1009.0R
PORT WING        1200   56     180/  6/  7 1009.8R
SAXON HARBOR     1240   58     190/  5/  7 1009.8R
$$

LMZ867-665-643>646-021400-
LAKE MICHIGAN

STATION/POSITION TIME  TEMP    WIND        PRES    WAVE
                       AIR SEA DIR/SP/G            HT/PER
                 (UTC) (F)     (DEG/KT/KT) (MB)    (FT/S)
N MID LAKE BUOY  1250   65 65  240/ 10/ 10 1010.1R   2/ 6
NORTHPORT PIER   1200   63     250/  2/  4 1009.8R
KEWAUNEE LAKESHO 1300   62     290/  4/  5 1010.0R
SHEBOYGAN LAKESH 1300   65 51  260/  7/  8 1011.5R
ATWATER BUOY     1300   65     270/  4/  4 1012.9R
MILWAUKEE LAKESH 1300   69     290/  2/  4   N/A
S MID LAKE BUOY  1250   69 69  310/  4/  4 1011.5R   1
KENOSHA   LAKESH 1300   68     280/  5/  7 1011.5S
$$

TC  - TEMPERATURE IN CELSIUS
VSB - VISIBILITY IN STATUTE MILES
WCI - WIND CHILL INDEX
HX  - HEAT INDEX




USA.gov is the U.S. government's official web portal to all federal, state and local government web resources and services.